Brainerd, MN

12:44 PM CDT on May 22, 2017 (GMT -0500)
Brainerd-Crow Wing County Regional

Weather History for KBRD - September, 2012

Change the Weather History Date:

Monday, September 17, 2012

  Actual Average Record
Temperature  
Mean Temperature 50 °F -  
Max Temperature 59 °F 67 °F 83 °F (1988)
Min Temperature 44 °F 42 °F 27 °F (1959)
Degree Days  
Heating Degree Days 14    
Moisture  
Dew Point 38 °F    
Average Humidity 62    
Maximum Humidity 80    
Minimum Humidity 37    
Precipitation  
Precipitation 0.00 in - - ()
Sea Level Pressure  
Sea Level Pressure 30.02 in    
Wind  
Wind Speed 8 mph (NNW)    
Max Wind Speed 14 mph    
Max Gust Speed 20 mph    
Visibility 10 miles    
Events Rain    
Averages and records for this station are not official NWS values.
T = Trace of Precipitation, MM = Missing Value Source: NWS Daily Summary

Daily Weather History Graph

Daily Weather History Graph

Search for Another Location

Airport or City:

Trip Planner

Search our weather history database for the weather conditions in past years. The results will help you decide how hot, cold, wet, or windy it might be!

Date:

Astronomy

Sep. 17, 2012 Rise Set
Actual Time 6:57 AM CDT 7:23 PM CDT
Civil Twilight 6:27 AM CDT 7:53 PM CDT
Nautical Twilight 5:51 AM CDT 8:28 PM CDT
Astronomical Twilight 5:14 AM CDT 9:05 PM CDT
Moon 8:58 AM CDT (9/17) 7:53 PM CDT (9/17)
Length of Visible Light 13h 25m
Length of Day
12h 25m
Waxing Crescent, 3% of the Moon is Illuminated
Sep 17
Waxing Crescent
Sep 22
First Quarter
Sep 29
Full
Oct 8
Last Quarter
Oct 15
New

Hourly Weather History & Observations

Time (CDT) Temp. Windchill Dew Point Humidity Pressure Visibility Wind Dir Wind Speed Gust Speed Precip Events Conditions
12:53 AM 52.0 °F - 46.0 °F 80% 29.98 in 10.0 mi North 6.9 mph - 0.00 in   Mostly Cloudy
1:53 AM 51.1 °F - 43.0 °F 74% 30.00 in 10.0 mi North 6.9 mph - N/A   Clear
2:53 AM 50.0 °F - 43.0 °F 77% 30.00 in 10.0 mi NNW 5.8 mph - N/A   Clear
3:53 AM 50.0 °F - 43.0 °F 77% 30.01 in 10.0 mi North 5.8 mph - N/A   Partly Cloudy
4:53 AM 48.9 °F - 41.0 °F 74% 30.01 in 10.0 mi NW 8.1 mph - N/A   Mostly Cloudy
7:53 AM 46.0 °F 40.6 °F 39.0 °F 76% 30.04 in 10.0 mi NNW 11.5 mph - N/A   Clear
8:53 AM 48.0 °F - 41.0 °F 77% 30.05 in 10.0 mi NNW 8.1 mph - N/A   Clear
9:53 AM 51.1 °F - 42.1 °F 71% 30.06 in 10.0 mi NNW 11.5 mph - N/A   Clear
10:53 AM 54.0 °F - 37.9 °F 55% 30.05 in 10.0 mi North 10.4 mph 19.6 mph N/A   Mostly Cloudy
11:53 AM 55.9 °F - 36.0 °F 47% 30.04 in 10.0 mi North 12.7 mph - N/A   Scattered Clouds
12:53 PM 55.0 °F - 34.0 °F 45% 30.03 in 10.0 mi North 13.8 mph - N/A   Mostly Cloudy
1:53 PM 57.0 °F - 30.9 °F 37% 30.02 in 10.0 mi NNW 12.7 mph 19.6 mph N/A   Mostly Cloudy
2:53 PM 55.0 °F - 36.0 °F 49% 30.02 in 10.0 mi North 11.5 mph - N/A   Overcast
3:53 PM 55.0 °F - 33.1 °F 43% 30.01 in 10.0 mi North 6.9 mph - N/A   Overcast
4:53 PM 57.9 °F - 34.0 °F 41% 30.00 in 10.0 mi NNE 9.2 mph - N/A   Scattered Clouds
5:53 PM 55.0 °F - 33.1 °F 43% 30.01 in 10.0 mi NNW 8.1 mph - N/A   Overcast
6:53 PM 54.0 °F - 35.1 °F 49% 30.01 in 10.0 mi NW 3.5 mph - N/A   Overcast
7:53 PM 48.0 °F - 37.0 °F 66% 30.04 in 10.0 mi ENE 3.5 mph - 0.00 in Rain Light Rain
8:53 PM 44.1 °F - 37.0 °F 76% 30.05 in 10.0 mi Calm Calm - 0.00 in   Clear
9:53 PM 46.0 °F 44.8 °F 37.9 °F 73% 30.04 in 10.0 mi WNW 3.5 mph - N/A   Mostly Cloudy
10:53 PM 46.9 °F - 37.0 °F 68% 30.04 in 10.0 mi NNW 3.5 mph - N/A   Overcast
11:53 PM 45.0 °F - 37.0 °F 74% 30.04 in 10.0 mi Calm Calm - N/A   Mostly Cloudy